This is the latest recevied weather packets stored in our database for station/object IA5KRO-13. If no packets are shown the sender has not sent any weather packets the latest 1 day(s).
| Time | Temp. | Humidity | Pressure | Rain* | Wind** | Luminosity | Snow |
|---|---|---|---|---|---|---|---|
| 1777993233 | 20° C | 76% | 1020 hPa | 0 mm | 0.89 m/s, 231° | - | - |
| 1777992910 | 20° C | 78% | 1020 hPa | 0 mm | 0.89 m/s, 126° | - | - |
| 1777992613 | 20° C | 79% | 1020 hPa | 0 mm | 0.89 m/s, 270° | - | - |
| 1777992314 | 20° C | 79% | 1020 hPa | 0 mm | 0.45 m/s, 185° | - | - |
| 1777992013 | 20° C | 80% | 1020 hPa | 0 mm | 1.34 m/s, 267° | - | - |
| 1777991709 | 20° C | 79% | 1020 hPa | 0 mm | 2.24 m/s, 270° | - | - |
| 1777991425 | 20° C | 78% | 1020 hPa | 0 mm | 3.13 m/s, 293° | - | - |
| 1777991109 | 21.11° C | 76% | 1020 hPa | 0 mm | 3.13 m/s, 288° | - | - |
| 1777990813 | 22.78° C | 69% | 1020 hPa | 0 mm | 0.45 m/s, 141° | - | - |
| 1777990514 | 23.89° C | 65% | 1020 hPa | 0 mm | 0 m/s | - | - |
| 1777990213 | 22.22° C | 70% | 1020 hPa | 0 mm | 0 m/s | - | - |
| 1777989910 | 22.22° C | 72% | 1020 hPa | 0 mm | 0 m/s | - | - |
| 1777989634 | 22.22° C | 70% | 1020 hPa | 0 mm | 0 m/s | - | - |
| 1777989311 | 22.78° C | 67% | 1020 hPa | 0 mm | 0.45 m/s, 156° | - | - |
| 1777988713 | 22.78° C | 71% | 1020 hPa | 0 mm | 0 m/s | - | - |
| 1777988415 | 22.78° C | 70% | 1020 hPa | 0 mm | 0.45 m/s, 168° | - | - |
| 1777988111 | 22.78° C | 69% | 1020 hPa | 0 mm | 0.45 m/s, 164° | - | - |
| 1777987832 | 22.78° C | 70% | 1020 hPa | 0 mm | 0.45 m/s, 153° | - | - |
| 1777987510 | 22.78° C | 68% | 1020 hPa | 0 mm | 0 m/s | - | - |
| 1777987213 | 22.78° C | 65% | 1020 hPa | 0 mm | 1.34 m/s, 91° | - | - |
| 1777986913 | 23.89° C | 65% | 1020 hPa | 0 mm | 0.45 m/s, 170° | - | - |
| 1777986613 | 23.89° C | 67% | 1020 hPa | 0 mm | 0 m/s | - | - |
| 1777986309 | 25° C | 62% | 1020 hPa | 0 mm | 0.45 m/s, 177° | - | - |
| 1777986033 | 25° C | 64% | 1020 hPa | 0 mm | 0 m/s | - | - |
| 1777985709 | 26.11° C | 62% | 1020 hPa | 0 mm | 0.45 m/s, 158° | - | - |
* Rain latest hour (hover to see other rain measurements)
** Current wind speed in m/s (hover to see current wind gust speed)